Wind_Speed
9 8 6 4 4 6 6 8 7 7 8 12 14 16 17 18 19 20 19 19 17 16 16 16 17 16 15 14 12 15 15 14 15 12 16 20 23 27 28 34 34 34 26
8 8 8 7 4 3 5 5 9 9 13 16 18 19 20 19 19 19 20 19 18 17 16 15 17 18 20 21 21 19 16 16 15 10 10 16 18 17 23 31 25 28 29
5 8 11 9 6 6 7 9 11 12 15 19 20 21 22 21 21 21 21 20 19 18 18 17 16 16 18 20 22 22 22 21 21 20 17 14 11 13 16 20 25 25 28
7 11 13 10 8 7 7 11 14 15 16 21 23 24 24 25 24 22 19 17 18 20 21 20 19 20 20 18 18 20 22 23 24 25 25 21 19 18 17 17 17 22 23
11 13 15 13 12 11 10 11 14 15 21 23 24 24 23 22 23 22 22 22 20 18 20 22 22 21 22 21 19 19 21 22 22 25 26 27 25 24 23 22 18 17 16
14 16 17 16 16 16 15 16 16 17 21 22 23 23 22 21 22 22 23 24 26 27 25 23 25 24 23 23 23 23 23 24 24 24 24 25 24 25 27 29 26 23 19
18 14 13 14 18 19 20 21 23 21 23 23 20 21 22 22 21 22 23 25 27 27 28 28 28 28 28 26 25 24 24 25 27 27 26 26 24 22 23 25 27 30 25
12 6 9 11 16 18 21 25 24 23 23 21 20 20 19 20 21 22 24 24 25 26 27 28 29 29 29 30 28 28 27 27 27 31 31 28 28 25 26 27 26 27 29
9 8 10 7 8 10 14 17 19 20 19 19 18 18 20 22 22 23 24 24 24 24 25 27 27 29 30 31 31 30 29 29 32 32 33 33 31 31 28 29 28 29 27
7 10 10 7 9 13 15 19 21 18 18 17 18 19 21 23 24 25 24 23 23 23 25 26 28 29 31 33 34 34 33 32 30 30 32 34 33 32 32 32 30 30 29
10 7 7 9 13 16 20 23 21 18 17 17 18 20 22 24 25 25 25 25 25 26 27 27 28 29 29 31 33 35 37 37 36 35 32 30 32 33 33 34 34 33 33
7 5 7 10 14 18 20 19 17 16 18 20 22 23 23 23 23 22 22 22 22 21 23 25 26 28 29 31 33 36 38 39 39 39 39 35 33 31 33 35 37 37 36
7 8 9 13 16 18 17 15 15 15 17 19 20 20 20 20 20 19 20 23 24 26 28 29 31 34 35 33 32 33 36 38 41 42 41 41 38 35 32 34 34 38 38
7 8 12 14 17 17 14 13 14 14 15 16 17 17 17 17 18 21 24 26 27 30 31 32 35 37 38 40 37 34 34 35 36 40 43 43 37 37 32 34 34 35 40
8 11 14 17 18 16 14 13 13 14 14 14 15 16 16 18 20 23 25 27 29 30 31 31 33 36 39 43 43 37 36 34 33 36 40 42 37 36 34 31 28 29 31
11 13 15 17 18 16 15 14 13 13 13 14 15 16 18 19 21 22 22 22 24 28 32 35 36 37 37 42 47 42 37 35 37 35 30 34 37 39 33 31 34 35 35
16 16 17 18 19 17 17 17 16 13 13 14 15 15 17 18 20 22 22 23 26 29 32 36 38 39 38 42 49 46 41 36 32 31 29 25 27 34 38 36 33 34 30
20 18 20 21 19 16 17 17 16 15 14 12 13 15 18 21 23 24 24 24 23 27 31 35 38 39 40 41 45 55 45 36 29 25 24 24 24 25 28 40 39 35 36
23 21 20 15 13 15 14 14 15 15 15 14 13 15 18 21 23 25 27 29 30 26 27 32 36 40 43 42 41 50 49 39 27 23 23 23 22 19 20 22 27 33 38
25 26 17 18 13 11 11 13 12 12 12 14 16 18 17 19 24 28 29 32 30 29 33 32 37 41 42 41 39 42 45 41 31 25 23 22 21 22 20 22 25 26 25
25 18 12 7 8 10 10 10 8 10 11 14 16 16 18 24 30 30 31 33 30 32 33 36 38 43 41 39 37 34 41 35 32 31 27 25 23 22 21 23 21 24 27
26 16 13 18 13 8 12 12 12 14 16 16 16 14 20 24 30 32 32 31 32 34 36 39 40 41 39 37 32 31 30 34 32 31 28 26 26 27 25 23 22 25 28
23 15 3 2 3 3 7 14 15 18 20 17 17 19 21 26 30 30 32 32 34 35 38 41 41 40 36 33 28 28 29 30 32 35 36 34 30 29 27 28 27 28 27
8 9 6 3 4 6 5 10 16 20 21 19 20 22 22 24 27 31 35 36 37 39 42 42 40 37 34 31 25 25 27 29 31 31 35 36 37 36 29 28 25 25 23
12 9 5 8 7 9 9 13 11 20 22 18 22 24 24 28 32 33 37 39 41 42 41 38 36 34 32 29 25 24 25 27 29 32 33 33 39 37 36 29 28 22 24
14 12 13 11 9 9 13 18 17 20 20 17 19 28 27 30 31 34 39 43 43 41 38 35 34 32 30 28 24 23 24 26 27 29 32 33 37 37 36 32 31 27 36
Wind_Direction
247 241 223 224 338 341 348 321 308 317 334 350 351 347 339 340 342 340 341 339 334 328 319 307 297 298 306 306 300 303 311 287 286 301 292 278 279 277 264 267 273 268 273
232 220 220 225 292 297 326 322 329 334 345 347 343 341 337 335 328 336 337 332 330 328 325 319 310 302 294 287 284 289 295 300 299 308 319 296 282 282 267 266 283 264 277
210 208 222 223 279 276 311 331 336 332 338 334 330 332 331 325 324 328 331 328 327 324 323 323 320 307 296 293 294 291 285 283 286 285 292 302 308 293 284 279 274 266 271
230 216 227 228 255 263 289 315 327 322 322 324 328 324 322 322 322 327 329 325 324 323 322 319 313 307 309 309 301 295 290 287 283 280 280 280 280 283 285 287 284 269 269
239 225 227 239 254 256 279 308 311 313 316 322 323 322 321 323 325 329 333 332 329 323 317 314 311 308 304 303 301 299 294 289 282 277 277 274 270 269 271 275 276 281 284
243 228 228 248 265 265 274 290 296 305 313 321 325 325 325 327 330 333 331 327 327 327 324 321 317 315 311 306 299 294 291 293 295 291 282 276 270 268 267 270 274 275 274
242 238 246 284 285 282 286 301 297 305 320 322 328 328 326 328 330 326 327 328 324 323 321 319 317 316 313 311 308 302 295 290 289 287 285 283 278 268 266 269 268 269 266
233 238 293 298 288 287 289 299 295 285 314 322 323 324 324 320 322 324 322 319 317 316 315 313 312 311 307 304 302 302 300 295 284 279 278 277 278 274 270 265 262 265 265
234 300 299 277 308 310 307 302 301 317 321 320 325 320 317 318 318 316 314 313 314 313 312 311 309 308 306 303 299 295 291 288 287 289 288 284 277 275 270 264 261 262 264
252 282 265 297 303 303 311 314 319 317 317 321 319 320 313 313 317 316 314 314 316 315 313 311 308 304 301 298 296 295 293 289 284 281 283 284 281 273 268 267 259 254 257
255 271 268 301 305 317 325 320 319 319 316 315 312 313 316 318 317 318 320 321 322 322 321 318 315 310 305 300 297 294 292 291 289 287 281 276 273 270 265 258 256 254 253
265 276 286 300 316 324 316 313 313 314 314 318 319 317 314 312 312 316 319 320 321 321 324 325 324 324 319 311 304 298 294 290 285 284 284 280 275 270 265 258 251 250 249
239 262 298 318 322 323 316 310 307 309 310 309 307 307 306 307 312 314 314 317 325 331 334 338 341 341 339 332 319 306 297 291 288 286 279 277 275 271 265 258 251 248 247
253 288 305 314 328 325 314 313 312 311 309 303 299 300 305 311 314 317 322 328 333 336 336 337 339 337 337 338 332 319 307 298 289 283 280 277 272 272 265 262 257 247 244
270 293 306 319 327 326 319 317 314 311 302 301 302 304 306 312 319 325 328 331 332 333 332 333 333 334 335 338 337 329 316 306 294 286 280 277 268 258 265 255 259 262 263
279 296 309 317 323 321 317 318 316 311 307 306 305 307 312 317 319 323 328 332 330 331 332 333 336 337 336 340 343 335 327 314 308 302 287 280 266 262 263 258 256 257 256
282 295 308 316 322 320 318 318 319 317 308 304 305 308 310 318 325 329 332 337 339 340 344 341 340 338 340 342 343 343 338 330 318 309 306 298 282 264 250 250 259 249 253
283 294 302 310 314 312 311 314 315 312 312 313 316 318 323 333 334 334 336 340 342 343 344 343 343 341 339 342 344 345 345 340 330 326 323 317 308 296 274 248 246 260 251
285 290 295 300 305 299 301 309 316 317 320 326 326 331 335 333 338 343 341 343 345 347 347 346 344 343 341 342 342 347 346 346 337 336 332 321 316 308 304 285 267 251 257
277 283 276 292 286 303 321 322 321 322 327 326 332 337 338 349 356 353 350 344 343 347 343 344 346 344 341 338 339 352 349 347 344 340 335 331 314 312 293 289 272 269 270
263 258 260 270 278 288 314 312 325 328 328 330 335 340 347 354 350 342 338 335 334 338 339 344 342 339 337 336 337 346 355 351 349 343 334 332 325 317 294 281 288 277 273
252 225 226 267 263 360 6 5 352 352 345 338 339 339 356 352 342 342 342 340 334 336 339 338 337 333 333 334 332 339 349 355 358 1 351 335 323 314 309 294 284 286 286
308 301 223 171 45 17 343 341 345 351 345 343 344 349 344 337 338 343 343 340 336 337 337 336 332 330 331 331 327 332 340 347 348 352 351 353 351 339 318 304 284 292 297
222 159 152 190 253 284 327 314 321 325 333 325 335 333 329 330 338 338 338 338 339 339 335 330 327 328 330 329 323 326 334 339 342 346 344 352 350 351 339 328 316 283 275
186 173 200 237 271 290 321 286 310 317 313 306 312 322 323 334 337 336 336 338 338 335 330 328 328 328 329 328 322 321 327 334 338 340 345 346 354 348 345 336 337 315 296
200 191 216 245 269 283 278 289 303 297 314 311 322 333 322 315 324 333 339 339 335 331 330 330 330 329 328 328 323 319 324 330 336 339 343 348 351 354 351 346 343 336 335
Height
3183 3182 3183 3182 3182 3181 3180 3179 3177 3175 3173 3169 3166 3163 3161 3158 3156 3152 3149 3145 3142 3140 3138 3136 3135 3133 3131 3128 3127 3125 3122 3119 3120 3122 3122 3121 3120 3116 3115 3116 3118 3117 3118
3180 3180 3180 3180 3180 3180 3180 3177 3175 3171 3169 3166 3164 3162 3159 3157 3153 3151 3147 3144 3140 3137 3135 3133 3131 3129 3126 3123 3122 3122 3121 3119 3118 3117 3117 3115 3114 3112 3111 3110 3107 3108 3108
3178 3178 3178 3179 3177 3176 3175 3173 3171 3168 3166 3164 3162 3159 3155 3152 3151 3148 3145 3141 3138 3135 3133 3130 3127 3124 3121 3119 3117 3116 3115 3115 3113 3112 3111 3109 3109 3107 3105 3104 3103 3102 3102
3175 3175 3174 3176 3174 3173 3172 3170 3168 3166 3164 3162 3159 3156 3151 3149 3147 3144 3141 3138 3135 3132 3128 3126 3122 3119 3117 3116 3114 3112 3110 3108 3107 3106 3105 3105 3104 3102 3101 3100 3099 3097 3095
3174 3172 3172 3171 3169 3169 3168 3167 3165 3163 3161 3158 3155 3152 3149 3145 3142 3139 3136 3133 3130 3128 3124 3121 3118 3115 3112 3110 3108 3106 3105 3103 3101 3099 3097 3096 3097 3096 3094 3093 3094 3093 3091
3171 3170 3168 3168 3167 3166 3165 3165 3162 3159 3156 3152 3150 3147 3144 3140 3136 3133 3130 3127 3124 3122 3119 3116 3112 3110 3107 3105 3102 3100 3097 3095 3094 3093 3091 3090 3089 3089 3088 3086 3085 3086 3086
3165 3167 3168 3166 3164 3163 3163 3161 3158 3155 3152 3147 3145 3142 3139 3136 3132 3129 3127 3124 3121 3117 3114 3110 3107 3104 3101 3099 3096 3094 3091 3088 3085 3084 3083 3082 3081 3081 3080 3080 3078 3076 3078
3157 3163 3164 3163 3160 3160 3158 3156 3153 3151 3147 3143 3141 3138 3135 3132 3129 3127 3125 3122 3118 3114 3110 3106 3102 3099 3096 3092 3091 3089 3086 3082 3078 3074 3072 3074 3072 3073 3072 3071 3071 3069 3068
3153 3160 3160 3158 3156 3155 3154 3152 3150 3146 3141 3139 3137 3135 3132 3129 3127 3124 3121 3118 3114 3109 3106 3102 3098 3094 3090 3086 3083 3080 3079 3076 3072 3069 3066 3064 3063 3063 3063 3061 3062 3061 3060
3157 3158 3156 3154 3153 3152 3150 3148 3144 3139 3137 3135 3134 3131 3128 3125 3122 3119 3116 3113 3109 3105 3101 3097 3092 3089 3084 3079 3075 3072 3070 3067 3064 3062 3059 3056 3053 3052 3053 3051 3052 3051 3051
3154 3153 3151 3151 3150 3148 3146 3142 3138 3135 3133 3132 3130 3127 3124 3120 3117 3113 3110 3107 3103 3098 3094 3090 3086 3082 3078 3072 3067 3063 3059 3055 3053 3050 3048 3047 3044 3042 3040 3040 3040 3041 3041
3150 3149 3148 3148 3147 3145 3141 3138 3135 3132 3129 3126 3123 3121 3119 3117 3114 3109 3106 3102 3098 3095 3090 3086 3081 3076 3070 3064 3058 3052 3048 3044 3040 3038 3035 3034 3033 3032 3031 3029 3029 3030 3030
3147 3147 3146 3144 3142 3140 3137 3134 3132 3129 3125 3123 3120 3118 3116 3113 3109 3105 3101 3097 3092 3086 3081 3077 3072 3066 3060 3056 3050 3044 3039 3033 3027 3024 3023 3020 3019 3019 3019 3018 3018 3018 3019
3143 3143 3142 3141 3138 3134 3132 3129 3126 3123 3121 3119 3117 3114 3111 3108 3104 3100 3096 3090 3084 3079 3075 3070 3064 3058 3053 3047 3040 3034 3028 3022 3017 3012 3008 3006 3006 3006 3006 3006 3007 3008 3009
3139 3139 3138 3135 3132 3130 3127 3125 3122 3120 3117 3115 3112 3109 3106 3103 3100 3095 3091 3085 3080 3076 3071 3065 3060 3053 3047 3039 3032 3025 3017 3011 3006 3000 2995 2993 2993 2994 2995 2996 2996 2997 2997
3135 3133 3131 3130 3128 3126 3123 3121 3119 3116 3112 3110 3107 3104 3101 3099 3095 3091 3087 3082 3076 3070 3064 3057 3051 3046 3040 3031 3023 3015 3008 3001 2992 2987 2984 2981 2979 2981 2983 2985 2986 2987 2988
3130 3128 3126 3124 3122 3119 3117 3116 3114 3112 3109 3106 3103 3101 3098 3096 3091 3087 3082 3077 3070 3064 3057 3051 3045 3039 3032 3024 3016 3008 2998 2990 2984 2977 2972 2970 2968 2967 2969 2974 2974 2976 2976
3125 3124 3121 3119 3116 3113 3110 3108 3107 3106 3104 3102 3099 3096 3093 3090 3086 3082 3077 3072 3067 3061 3054 3048 3041 3034 3027 3020 3011 3001 2993 2984 2977 2972 2967 2963 2960 2958 2957 2959 2963 2963 2964
3120 3119 3116 3113 3111 3108 3105 3103 3102 3100 3098 3096 3095 3092 3089 3085 3082 3077 3071 3067 3062 3058 3053 3046 3038 3031 3023 3016 3008 2999 2988 2980 2974 2969 2965 2960 2957 2953 2951 2949 2950 2953 2953
3115 3113 3110 3106 3105 3103 3101 3100 3098 3096 3094 3092 3089 3087 3085 3081 3078 3075 3069 3063 3058 3053 3048 3041 3034 3027 3019 3011 3005 2997 2986 2978 2971 2967 2962 2957 2953 2949 2946 2945 2943 2943 2943
3106 3106 3103 3102 3099 3097 3096 3097 3095 3094 3092 3089 3087 3084 3080 3077 3074 3071 3065 3060 3053 3048 3042 3035 3029 3022 3015 3008 3001 2994 2987 2978 2971 2964 2958 2954 2949 2945 2941 2939 2936 2934 2933
3097 3095 3093 3091 3095 3095 3095 3094 3094 3092 3090 3087 3084 3081 3078 3075 3072 3067 3061 3055 3050 3043 3036 3030 3023 3017 3010 3003 2997 2991 2984 2978 2971 2963 2956 2949 2944 2940 2935 2931 2928 2926 2923
3098 3097 3094 3093 3092 3093 3093 3093 3092 3091 3088 3084 3081 3078 3075 3073 3068 3063 3056 3050 3044 3037 3030 3023 3016 3010 3004 2998 2993 2987 2982 2975 2968 2961 2954 2946 2940 2933 2927 2922 2919 2917 2915
3094 3095 3093 3091 3091 3091 3090 3090 3090 3088 3085 3082 3079 3076 3073 3068 3064 3058 3052 3045 3038 3031 3024 3018 3011 3004 2998 2993 2988 2983 2978 2972 2966 2959 2952 2944 2935 2928 2920 2914 2909 2906 2904
3093 3092 3090 3089 3089 3088 3088 3087 3085 3084 3081 3079 3076 3072 3068 3064 3059 3053 3047 3039 3031 3025 3018 3012 3005 2998 2993 2988 2983 2979 2974 2969 2963 2956 2950 2942 2934 2924 2916 2908 2901 2896 2895
3090 3088 3088 3087 3087 3086 3085 3085 3082 3080 3077 3075 3072 3068 3062 3058 3054 3048 3041 3032 3025 3019 3012 3005 2999 2993 2988 2983 2978 2974 2970 2965 2960 2954 2947 2940 2932 2924 2914 2905 2898 2891 2884